CAPE
0 0 0 0 0 0 0 0 0 0 0 0 0 0 0 0 41 438 747 1011 1588 1184 1451 1836 1839 1696 1765 1814 1781 1739 1536 1665 1757 1674 1499 1292 1257 1208 1030 1067 1325 1338 1282 874 184 225 319 477 705
0 0 0 0 0 0 0 0 0 0 0 0 0 0 0 0 547 1064 924 961 1197 1247 1285 1605 2024 1852 1834 1816 1794 1815 1767 1778 1831 1735 1567 1456 1469 1516 1500 1353 1249 1278 1160 841 479 338 256 520 498
0 0 0 0 0 0 0 0 0 0 0 0 0 0 0 31 10 791 817 917 1133 1078 1302 1371 1838 1971 1913 1845 1801 1793 1763 1657 1767 1675 1625 1614 1716 1733 1531 1293 1083 1209 1179 807 484 313 352 386 334
0 0 0 0 0 0 0 0 0 0 0 0 0 0 28 2 214 699 634 654 1042 1040 1412 1315 1522 2045 2027 1906 1835 1827 1735 1498 1609 1651 1678 1814 1846 1733 1408 1152 1155 1229 1196 597 353 251 236 51 35
0 0 0 0 0 0 0 0 0 0 0 0 0 0 60 220 280 252 503 557 636 993 1187 1097 1363 1905 1958 1718 1898 1586 1576 1478 1574 1633 1643 1632 1740 1574 1232 1006 1032 1077 954 661 283 158 26 0 17
0 0 0 0 0 0 0 0 0 0 0 0 0 0 100 60 108 383 332 415 634 1538 1214 1088 1026 1454 1512 1595 1436 1103 839 1007 1076 1159 1273 934 1361 1178 1021 852 848 806 503 274 187 52 23 14 2
0 0 0 0 0 0 0 0 0 0 0 0 0 0 68 42 371 297 338 617 854 1090 1052 1184 951 611 363 351 208 68 88 4 158 587 479 761 898 866 867 730 592 520 321 161 72 24 3 0 0
0 0 0 0 0 0 0 0 0 0 0 0 0 0 74 213 244 199 606 553 583 989 887 856 610 161 33 10 10 39 117 168 0 28 330 509 679 636 657 557 490 329 183 68 54 3 0 0 0
0 0 0 0 0 0 0 0 0 0 0 0 0 0 323 532 479 252 534 495 474 780 711 560 556 210 54 13 3 38 100 140 25 9 3 335 421 339 312 253 285 181 63 53 38 0 0 0 0
0 0 0 0 0 0 0 0 0 0 0 0 0 376 747 344 168 247 436 526 614 626 605 517 302 50 26 35 7 0 0 22 2 0 20 147 240 99 154 158 139 75 31 15 0 0 0 0 0
0 0 0 0 0 0 0 0 0 0 0 0 0 220 184 67 43 32 75 222 545 412 574 383 121 17 0 2 0 1 1 0 0 0 0 191 132 73 58 25 18 1 3 0 0 0 0 0 0
0 0 0 0 0 0 0 0 0 0 0 0 0 6 83 143 53 46 33 338 378 200 274 162 65 37 0 7 0 0 0 1 0 0 0 190 97 46 4 1 0 0 0 0 0 0 0 0 0
0 0 0 0 0 0 0 0 0 0 0 0 0 0 0 28 27 9 10 47 93 104 74 30 3 14 0 0 0 0 0 3 2 22 57 111 75 8 0 0 0 0 0 0 0 0 0 0 0
0 0 0 0 0 0 0 0 0 0 0 0 0 0 0 0 26 0 0 0 18 6 8 0 4 1 0 0 0 1 1 0 40 36 46 40 60 0 0 0 0 0 0 0 0 0 0 0 0
0 0 0 0 0 0 0 0 0 0 0 0 0 0 0 0 27 0 0 0 6 7 0 0 0 0 0 4 0 0 1 8 13 13 4 28 35 0 0 0 0 0 0 0 0 0 0 0 0
0 0 0 0 0 0 0 0 0 0 0 0 0 0 0 0 43 0 0 0 0 0 0 0 0 0 0 0 0 1 0 1 3 8 0 0 25 7 0 0 0 0 0 0 0 0 0 0 0
0 0 0 0 0 0 0 0 0 0 0 0 0 0 0 0 4 0 0 0 0 0 0 0 0 1 0 0 0 0 0 0 0 0 0 0 0 20 14 2 0 0 0 0 0 0 0 0 0
0 0 0 0 0 0 0 0 0 0 0 0 0 0 0 0 6 0 0 0 0 0 0 0 5 4 0 1 3 2 7 0 0 0 0 0 0 0 8 41 29 44 7 0 0 0 0 0 0
0 0 0 0 0 0 0 0 0 0 0 0 0 0 0 0 6 0 0 0 0 0 0 1 4 0 2 2 3 3 0 2 1 0 0 0 0 0 9 19 26 12 58 5 0 3 1 0 0
0 0 0 0 0 0 0 0 0 0 0 0 0 0 0 0 0 0 0 0 0 0 0 0 0 0 0 0 1 0 2 8 3 1 0 0 0 0 0 16 25 1 27 25 0 0 0 0 0
0 0 0 0 0 0 0 0 0 0 0 0 0 0 0 2 0 0 0 0 0 0 0 0 0 0 0 0 0 1 0 1 0 0 0 0 0 0 0 5 4 0 1 0 0 0 0 0 0
0 0 0 0 0 0 0 0 0 0 0 0 0 0 0 0 0 0 0 0 0 0 0 0 0 0 0 0 2 1 1 0 0 0 0 0 0 0 0 0 0 0 15 12 20 17 1 1 0
0 12 0 0 0 0 0 0 0 0 0 0 0 0 0 0 5 0 0 0 0 0 0 0 0 0 0 2 0 1 0 0 0 0 0 0 0 0 0 1 0 2 20 38 55 66 47 25 0
0 1 0 0 0 0 0 0 0 0 0 0 0 0 0 0 15 0 0 0 0 0 0 0 0 1 0 0 1 0 0 0 0 0 0 0 0 0 0 0 31 44 26 70 58 61 57 52 44
0 2 9 0 0 0 0 0 0 0 0 0 0 0 0 0 13 0 0 0 0 0 0 0 0 0 0 0 0 0 0 0 0 0 0 0 0 0 0 1 9 32 35 33 50 31 33 28 35
0 1 0 12 8 2 0 0 0 0 0 0 0 0 0 0 6 0 0 0 0 0 0 0 0 0 2 1 0 0 0 0 0 0 0 0 0 0 0 0 13 11 9 12 36 21 20 36 41
1 1 0 1 0 0 0 0 0 0 0 0 0 0 0 0 0 13 0 0 0 0 0 0 0 0 1 0 0 0 0 0 0 0 0 0 0 0 0 0 0 6 2 1 17 14 11 25 28
1 2 2 6 13 0 0 3 0 0 0 0 0 0 0 0 0 4 0 0 0 0 0 0 0 0 0 0 5 2 1 1 0 0 0 0 0 0 0 0 0 0 1 6 17 16 0 2 7
5 4 9 7 0 0 0 0 0 0 0 0 0 0 0 0 0 0 28 0 0 0 0 0 0 0 0 0 1 4 3 0 0 0 0 0 0 0 0 0 0 0 0 3 6 6 2 0 0
5 0 0 17 12 0 0 0 0 0 0 0 0 0 0 0 0 0 16 0 0 0 0 0 0 0 0 0 0 0 4 6 2 1 0 0 0 0 0 0 0 0 0 0 0 0 1 0 0
CIN
0 0 0 0 0 0 0 0 0 0 0 0 0 0 0 0 -7 -55 -119 -75 -119 -200 -140 -41 -53 -76 -60 -62 -22 -4 -10 -4 0 -4 -11 -3 -1 -1 0 0 0 0 0 -1 -27 -24 -1 0 0
0 0 0 0 0 0 0 0 0 0 0 0 0 0 0 0 -64 -95 -129 -144 -85 -177 -197 -117 -32 -41 -41 -48 -31 -14 -2 0 0 0 0 0 0 0 0 -1 0 0 0 0 0 -2 -3 0 -1
0 0 0 0 0 0 0 0 0 0 0 0 0 0 0 -132 -70 -123 -190 -166 -147 -72 -138 -160 -64 -31 -19 -25 -19 -1 0 0 0 0 0 -1 0 0 0 -1 0 0 0 0 0 -1 0 -7 -12
0 0 0 0 0 0 0 0 0 0 0 0 0 0 -67 -16 -86 -161 -189 -165 -173 -108 -59 -177 -104 -22 -1 0 0 0 -1 -3 -1 0 0 0 0 0 0 -2 0 0 0 0 -2 -7 -16 -61 -129
0 0 0 0 0 0 0 0 0 0 0 0 0 0 -101 -125 -173 -189 -197 -177 -169 -149 -153 -157 -98 -47 -34 -15 -1 -5 -3 -3 -1 -2 0 0 0 0 -1 -2 -1 0 0 0 -7 -30 -76 0 -63
0 0 0 0 0 0 0 0 0 0 0 0 0 0 -106 -169 -175 -219 -224 -213 -180 -103 -139 -116 -97 -45 -45 -22 -14 -27 -26 -5 -13 -10 -2 -2 0 -1 -1 -2 -2 0 -1 -9 -26 -62 -118 -102 -9
0 0 0 0 0 0 0 0 0 0 0 0 0 0 -132 -176 -201 -234 -232 -244 -210 -168 -125 -78 -85 -146 -190 -188 -204 -232 -118 -24 -50 -9 -4 -2 -5 -6 -2 -1 -2 -4 0 -4 -31 -64 -92 0 0
0 0 0 0 0 0 0 0 0 0 0 0 0 0 -132 -181 -239 -227 -232 -259 -228 -153 -137 -106 -141 -258 -286 -236 -254 -256 -125 -97 0 -25 -5 -123 -17 -14 -5 -2 -1 -10 -22 -25 -45 -81 0 0 0
0 0 0 0 0 0 0 0 0 0 0 0 0 0 -93 -215 -228 -200 -256 -252 -250 -150 -129 -141 -112 -166 -227 -266 -88 -226 -149 -114 -216 -77 -5 -5 -8 -31 -31 -9 -6 -15 -30 -33 -40 -12 0 0 0
0 0 0 0 0 0 0 0 0 0 0 0 0 -163 -147 -171 -218 -176 -215 -212 -195 -147 -106 -94 -128 -157 -198 -189 -214 0 0 -185 -73 0 -64 -6 -6 -62 -23 -28 -14 -16 -37 -92 -19 0 0 0 0
0 0 0 0 0 0 0 0 0 0 0 0 0 -134 -159 -191 -190 -192 -147 -216 -191 -164 -54 -80 -153 -90 0 -29 0 0 0 0 0 0 0 -12 -10 -39 -30 -46 -70 -1 -7 0 0 0 0 0 0
0 0 0 0 0 0 0 0 0 0 0 0 0 -64 -173 -142 -169 -173 -192 -276 -212 -190 -61 -55 -58 -29 0 -98 0 0 0 0 0 0 0 -3 -3 -34 0 -1 -1 -1 0 0 0 0 0 0 0
0 0 0 0 0 0 0 0 0 0 0 0 0 0 0 -134 -144 -118 -129 -376 -354 -263 -164 -129 -57 -46 0 0 0 0 0 -2 -27 -1 0 -4 -7 -12 0 0 0 0 0 0 0 0 0 0 0
0 0 0 0 0 0 0 0 0 0 0 0 0 0 0 0 -129 0 0 0 -411 -229 -258 0 -19 -16 0 0 0 0 0 0 -4 -8 -8 -27 -37 0 0 0 0 0 0 0 0 0 0 0 0
0 0 0 0 0 0 0 0 0 0 0 0 0 0 0 0 -147 0 0 0 -119 -237 0 0 -22 -2 -2 -12 0 0 0 -17 -34 -47 -38 -23 -55 0 0 0 0 0 0 0 0 0 0 0 0
0 0 0 0 0 0 0 0 0 0 0 0 0 0 0 0 -151 0 0 0 0 0 0 0 -7 0 0 0 -8 0 0 -1 -32 -86 -1 -12 -50 -61 0 0 0 0 0 0 0 0 0 0 0
0 0 0 0 0 0 0 0 0 0 0 0 0 0 0 0 -114 0 0 0 0 0 0 0 -8 -7 0 0 0 0 0 0 0 0 0 0 -20 -54 -82 -69 0 -13 0 0 0 0 0 0 0
0 0 0 0 0 0 0 0 0 0 0 0 0 0 -28 0 -185 0 0 0 0 0 0 0 -5 -4 0 0 -3 -3 -2 0 0 0 0 0 0 0 -74 -100 -123 -134 -116 0 0 -12 0 0 0
0 0 0 0 0 0 0 0 0 0 0 0 0 0 0 0 -173 0 0 0 0 0 0 -40 -11 -4 -6 -12 0 0 0 0 0 0 0 0 0 0 -44 -91 -102 -138 -95 -87 0 -152 -58 0 0
0 0 0 0 0 0 0 0 0 0 0 0 0 0 0 0 0 0 0 0 0 0 0 -31 0 0 -14 0 0 0 0 0 -5 0 0 0 0 0 0 -108 -98 -95 -91 -128 0 -8 0 0 0
0 0 0 0 0 0 0 0 0 0 0 0 0 0 0 -164 0 0 0 0 0 0 0 0 0 0 0 0 -1 -3 0 0 0 0 0 0 0 0 0 -106 -88 -39 -61 0 0 0 0 0 0
0 0 0 0 0 0 0 0 0 0 0 0 0 0 0 0 0 0 0 0 0 0 0 0 0 -4 0 0 0 -1 -1 0 0 0 0 0 0 0 0 0 0 -11 -58 -70 -111 -140 -100 -95 0
0 -45 0 0 0 0 0 0 0 0 0 0 0 0 0 0 -255 0 0 0 0 0 0 0 0 0 0 -19 0 0 0 0 0 0 0 0 0 0 0 -27 -53 -119 -129 -117 -99 -106 -85 -135 0
0 -2 0 0 0 0 0 0 0 0 0 0 0 0 0 0 -258 0 0 0 0 0 0 0 0 0 0 0 0 -1 0 0 0 0 -1 0 0 0 0 0 -106 -108 -112 -108 -120 -117 -95 -98 -109
0 -1 -7 0 0 0 0 0 0 0 0 0 0 0 0 0 -272 0 0 0 0 0 0 0 0 0 0 0 -3 0 0 0 0 0 -2 -3 0 0 0 -36 -94 -126 -119 -114 -115 -118 -106 -100 -116
0 0 -1 -2 -3 -9 0 0 0 0 0 0 0 0 0 0 -252 0 0 0 0 0 0 0 0 0 -2 -7 -6 -5 0 0 0 0 0 0 0 0 0 -4 -100 -113 -143 -120 -98 -133 -149 -131 -155
0 -2 0 0 0 0 0 0 0 0 0 0 0 0 0 0 0 -257 0 0 0 0 0 0 0 0 0 -1 -7 -5 -8 0 0 0 0 0 0 0 0 0 0 -110 -102 -90 -99 -103 -106 -116 -117
-1 -1 0 0 0 0 0 -13 0 0 0 0 0 0 0 0 0 -144 0 0 0 0 0 0 0 0 0 0 -5 -2 -10 -2 0 -9 0 0 0 0 0 0 0 0 -47 -83 -94 -95 -37 -61 -63
-1 0 0 0 -1 -1 0 0 0 0 0 0 0 0 0 0 0 0 -232 0 0 0 0 0 0 0 0 0 -15 -3 -1 0 0 0 0 0 0 0 0 0 0 0 -96 -86 -81 -73 -91 0 0
-11 0 0 0 -2 0 0 0 0 0 0 0 0 0 0 0 0 0 -241 -15 0 0 0 0 0 0 0 0 0 -1 -2 -3 -4 -12 -11 0 0 0 0 0 0 0 0 0 0 -4 -55 0 0
Wind_Speed
6 5 1 3 3 3 5 10 5 3 6 3 6 8 6 3 1 4 3 6 12 11 10 10 13 17 17 19 17 14 14 16 17 17 19 17 17 19 17 18 20 22 22 24 23 24 24 26 23
4 3 2 2 4 2 7 10 15 9 8 8 6 5 0 2 7 9 5 5 10 10 10 10 12 14 17 19 19 19 18 17 17 18 18 19 18 18 18 17 19 21 22 25 24 24 26 24 22
3 2 2 4 4 7 7 1 3 7 10 6 3 4 4 7 5 6 7 8 7 7 10 11 14 16 16 18 19 18 19 20 18 18 19 21 20 20 22 20 20 21 22 23 25 25 24 20 18
2 3 4 0 11 15 14 16 5 6 4 8 5 3 5 3 4 9 10 9 9 3 10 14 16 15 15 17 18 18 19 20 20 19 18 20 21 21 21 22 21 22 21 23 23 23 18 15 14
1 2 3 5 11 17 17 10 6 5 6 8 9 6 7 3 11 9 8 7 8 6 7 8 10 16 20 20 19 20 20 20 21 22 21 18 22 21 20 20 20 21 21 20 21 18 17 15 14
2 3 1 7 15 21 17 15 7 5 3 2 3 6 5 9 9 8 8 7 7 8 7 6 6 7 10 18 21 17 16 19 20 20 21 21 22 21 20 20 19 19 21 19 17 15 15 14 15
5 3 6 8 17 22 16 5 8 6 4 2 6 6 5 6 8 9 8 8 8 7 6 5 5 7 9 14 19 17 16 17 10 14 23 26 22 22 20 21 21 22 19 17 15 13 12 14 13
4 3 9 11 13 21 12 3 8 8 5 8 6 4 6 7 9 9 8 8 7 6 6 5 6 5 6 8 15 16 18 21 17 13 9 18 23 25 20 22 21 22 20 18 16 13 11 12 11
5 9 12 16 16 22 11 3 2 4 7 4 8 8 11 14 11 7 5 5 5 5 5 5 6 5 6 6 9 14 19 22 29 32 16 11 12 16 20 19 22 21 19 17 15 14 10 11 10
10 8 16 15 21 20 14 8 8 5 7 5 4 10 13 11 9 8 7 7 6 6 6 5 7 7 7 5 5 5 6 7 8 12 12 12 13 13 13 19 21 19 17 17 14 12 10 8 4
10 18 14 16 24 17 16 11 3 5 5 5 5 14 14 10 9 9 6 8 8 6 4 6 7 5 7 6 4 3 3 5 8 10 9 11 10 11 10 8 10 9 13 7 8 8 3 5 4
12 18 18 20 25 20 18 9 7 3 6 7 8 14 13 9 9 8 6 10 9 7 6 5 6 6 5 4 5 4 4 4 6 10 12 10 8 11 11 8 10 9 6 7 5 4 4 5 4
18 19 20 21 22 22 19 11 8 6 6 3 3 9 10 10 9 7 10 10 11 9 6 6 7 7 6 5 3 4 4 4 6 13 18 11 11 11 10 9 8 7 9 7 5 5 4 5 3
14 16 18 19 19 17 17 10 4 9 7 8 6 10 9 10 8 7 8 9 9 10 7 4 6 7 7 6 5 3 3 5 4 8 10 12 11 11 10 10 8 7 9 8 6 5 5 4 4
16 18 16 18 15 16 12 11 8 9 9 11 9 13 10 10 10 9 9 10 11 9 9 6 6 7 6 7 6 4 4 7 7 7 9 13 13 12 13 10 9 8 6 11 5 5 5 4 5
7 9 12 10 12 15 9 16 13 12 12 13 12 10 10 11 12 9 10 11 10 10 12 7 6 6 6 6 4 4 6 5 10 8 6 6 12 14 11 10 9 9 7 8 6 5 7 5 5
5 5 9 12 12 15 10 16 16 12 14 12 14 11 11 12 9 9 13 13 11 11 14 9 8 6 6 6 4 5 6 5 6 7 8 6 9 13 10 10 8 10 8 5 7 4 8 7 4
6 5 8 11 17 13 20 20 17 14 9 8 10 10 10 16 15 13 15 15 12 12 13 11 8 10 9 6 5 4 6 5 6 6 7 7 5 9 9 9 8 6 8 5 6 9 4 7 7
16 15 13 11 12 14 20 23 14 16 8 9 10 10 9 17 15 15 15 15 13 13 14 13 11 9 8 6 5 4 5 6 6 7 9 8 5 6 12 8 6 5 8 4 9 6 7 3 5
19 18 17 16 15 12 19 17 10 7 8 9 13 11 11 12 17 17 15 14 15 14 13 13 12 11 8 7 6 2 4 5 9 9 10 10 9 6 7 9 8 5 7 3 4 6 3 3 5
19 15 16 15 19 22 18 15 4 7 7 7 10 15 14 17 20 18 17 15 15 16 16 14 14 12 9 7 7 6 4 4 5 8 9 9 9 10 10 13 12 6 10 10 9 5 7 4 2
13 17 13 15 12 12 17 10 7 9 16 15 11 10 15 13 20 20 18 16 17 14 13 15 15 13 11 10 9 12 8 9 6 9 10 10 6 7 6 9 14 10 6 7 5 5 4 5 4
10 16 9 9 10 12 19 5 7 9 8 16 16 10 13 16 23 22 20 19 16 18 14 13 15 14 12 11 12 11 11 9 8 8 13 9 5 6 6 6 7 6 5 6 7 6 6 4 4
14 13 10 8 2 6 12 7 7 9 11 8 8 15 16 11 22 21 18 18 15 16 14 14 16 14 14 13 13 14 16 11 9 8 9 7 3 4 6 7 7 7 6 6 5 6 7 6 4
10 3 3 2 4 4 8 13 13 11 13 12 5 10 10 11 21 19 19 17 16 18 17 14 15 16 15 15 13 14 13 14 14 12 9 10 7 8 7 7 7 6 6 6 6 7 6 6 4
12 10 3 6 3 2 8 8 10 15 19 10 6 7 8 13 19 21 21 19 19 19 19 18 16 16 16 16 15 13 14 10 10 13 10 10 9 8 8 5 6 7 7 6 5 4 5 6 6
5 7 16 6 6 2 5 8 22 14 16 7 8 8 8 7 13 20 20 19 19 19 19 17 18 16 17 17 14 14 13 12 12 15 14 12 11 9 9 8 8 8 8 8 7 5 7 8 10
8 3 4 4 4 4 6 11 2 11 7 5 6 6 7 5 5 15 18 19 18 19 17 16 17 16 16 16 14 13 14 14 13 12 16 15 14 14 13 12 11 11 11 11 10 9 9 10 9
8 6 5 3 8 2 2 5 3 10 15 13 14 14 10 12 10 8 17 16 16 16 16 16 15 15 14 15 14 14 13 15 13 13 13 14 14 15 16 16 15 15 15 15 14 14 13 14 14
4 12 13 3 1 4 2 7 7 6 11 13 10 11 16 18 21 11 15 15 16 16 15 16 14 14 15 15 13 15 14 14 15 15 15 15 16 15 17 16 16 18 17 17 17 18 16 17 17
Wind_Direction
157 224 165 9 44 86 255 258 247 298 59 54 65 73 121 20 76 162 194 100 127 137 139 151 151 151 149 143 144 142 144 140 138 133 128 123 122 120 120 122 122 124 126 127 129 129 125 121 118
189 217 321 265 123 258 269 247 237 113 129 94 75 87 67 102 75 127 104 91 109 148 153 148 150 160 156 152 155 154 154 150 145 139 136 132 131 127 126 126 125 127 129 125 128 128 126 123 124
6 303 110 175 195 213 233 267 115 131 123 121 113 146 167 131 104 115 145 134 108 134 160 155 158 166 168 162 160 159 159 154 150 150 150 142 141 141 135 132 131 131 130 129 130 130 131 128 124
168 330 317 33 254 259 242 271 191 130 107 112 112 82 68 112 121 145 150 137 133 181 156 167 167 159 167 171 165 163 161 160 156 156 155 149 145 143 138 135 137 134 130 134 130 135 131 122 117
317 294 231 226 250 257 260 266 183 114 109 137 137 199 132 66 112 126 127 110 116 112 129 160 155 166 174 177 174 176 169 162 163 159 157 157 147 141 137 135 136 134 132 133 135 140 130 119 108
298 162 308 241 257 265 271 246 139 129 130 158 152 133 152 144 125 132 123 128 120 131 131 148 165 206 195 189 191 186 177 169 173 164 158 158 146 137 137 134 130 129 128 133 139 143 123 114 103
204 298 231 257 265 281 281 213 129 140 139 122 131 146 133 130 141 140 135 107 96 102 99 94 154 124 87 97 109 121 131 97 50 202 166 165 149 135 138 134 131 124 126 133 138 134 117 112 99
205 221 270 267 277 283 291 157 157 150 198 150 126 171 171 188 147 135 127 125 126 113 121 112 105 132 120 118 124 134 137 133 117 279 205 163 140 136 136 131 132 129 131 138 137 129 120 109 105
233 251 249 259 265 265 299 206 211 188 138 143 172 181 165 154 144 135 120 119 127 133 144 143 132 131 131 140 162 169 159 167 168 193 247 193 149 133 132 134 132 129 134 139 137 126 129 122 114
211 233 237 242 261 270 293 224 195 177 173 212 256 73 124 141 154 173 164 166 161 159 153 149 138 139 125 127 139 140 159 153 166 164 188 174 152 134 132 133 125 128 136 134 129 130 140 119 106
233 236 247 256 262 274 300 297 256 197 196 185 165 153 156 168 177 184 186 165 162 143 124 162 149 143 147 149 141 126 134 148 161 158 202 159 142 128 133 132 126 135 130 133 131 140 163 127 134
244 246 244 253 263 268 273 272 299 244 228 190 169 150 160 167 173 182 176 121 125 130 140 152 150 146 119 123 147 165 159 173 165 155 197 160 139 138 140 139 138 146 140 132 143 154 150 147 147
233 240 247 249 254 259 269 262 251 273 296 268 167 144 152 160 166 152 126 128 136 130 139 158 138 125 125 113 129 148 158 170 183 194 164 142 145 146 139 136 145 149 140 144 154 165 148 157 179
254 253 254 260 261 263 260 263 214 262 267 278 251 160 167 163 166 139 136 140 129 129 139 137 140 137 138 143 139 126 133 139 113 129 127 146 147 143 140 146 146 149 156 152 162 166 162 165 179
257 258 269 261 268 270 260 272 246 232 223 236 220 180 172 166 165 165 166 140 139 139 137 145 116 114 115 140 131 137 118 133 123 126 123 146 142 150 151 148 153 149 165 158 159 171 180 139 179
291 268 256 268 262 271 215 254 261 240 224 230 231 187 166 171 159 147 138 136 137 128 132 129 120 116 121 105 127 103 123 121 135 132 142 144 151 148 146 153 157 151 170 166 169 173 169 147 157
238 251 283 271 252 261 241 255 242 240 245 237 212 184 176 164 156 154 141 145 144 138 133 138 130 144 132 124 107 122 119 131 147 143 154 152 143 153 148 155 165 158 177 160 177 174 154 155 154
265 280 265 262 267 282 259 258 235 234 216 202 167 197 183 168 178 162 147 147 147 143 142 140 151 150 147 142 131 140 154 145 156 159 158 152 135 140 155 160 162 136 177 159 176 171 150 156 161
272 275 263 271 285 313 281 268 234 219 213 207 194 198 187 175 177 158 151 147 142 139 143 154 142 147 148 146 150 158 173 157 160 167 164 161 149 141 166 164 157 145 167 137 183 161 156 148 157
258 264 271 288 289 282 303 291 220 210 214 201 203 202 203 172 154 154 155 151 154 145 148 146 142 151 155 159 150 135 148 181 176 171 167 174 174 171 169 159 152 175 152 164 224 143 129 137 153
288 249 266 274 299 310 292 285 249 267 278 269 214 200 197 164 157 158 160 162 149 151 154 155 155 157 156 158 135 133 108 108 140 166 167 179 189 187 169 159 162 159 154 177 214 152 141 142 154
289 284 256 263 281 280 302 285 278 252 250 248 251 188 190 159 161 160 160 166 158 161 153 152 156 162 165 159 155 158 165 157 170 167 173 181 184 183 174 157 156 177 159 164 170 161 150 132 156
267 315 349 334 325 313 297 270 265 278 268 235 239 211 182 166 164 167 168 168 162 154 157 154 161 164 167 169 168 166 176 170 161 163 175 181 189 187 200 168 155 165 159 174 168 160 158 142 146
271 332 328 310 286 261 273 279 263 252 261 292 236 210 189 177 166 164 164 155 159 152 150 153 165 172 169 175 172 176 176 172 173 172 177 184 167 181 202 192 167 177 175 171 181 168 170 169 166
275 291 1 346 234 219 266 269 248 270 261 257 305 149 164 184 156 154 156 162 162 156 157 158 166 175 174 183 178 181 181 180 181 180 179 183 194 194 192 187 176 169 172 182 176 179 177 183 149
224 189 183 185 262 333 258 245 242 242 240 253 117 98 136 138 150 160 166 167 166 160 159 163 170 174 179 182 190 187 188 185 186 189 187 194 200 207 191 179 178 185 174 178 189 180 178 176 188
230 232 228 341 242 254 258 264 267 270 242 165 123 105 131 144 140 162 167 168 166 163 168 164 169 176 184 185 186 194 196 192 192 195 196 196 196 199 197 191 194 187 190 188 184 187 190 191 201
187 87 144 172 234 207 246 242 219 349 147 159 94 107 107 124 167 161 167 169 168 165 165 167 172 176 179 184 185 193 195 203 202 193 200 201 204 202 199 199 197 200 206 208 199 200 199 198 204
171 212 189 201 257 300 285 298 271 33 42 65 60 56 52 43 26 187 167 161 160 161 163 169 169 173 176 184 183 191 196 202 206 206 201 205 206 207 210 206 204 202 202 202 207 214 212 213 214
332 202 183 218 203 249 191 264 16 35 51 48 38 49 57 47 32 34 144 147 156 162 165 173 175 174 179 182 186 194 199 202 206 211 207 204 210 210 213 215 215 218 216 214 213 217 215 217 219